When you browse on this site, cookies collect data to enhance your experience and personalize the content and advertising you see.
Visit our Privacy Policy to learn more. By continuing to use the site, you agree to this use of cookies and data.
  • In United Kingdom
  • List of Countries
  • For 7 days
  • Water Temperature
  • Satellite Maps
  • Weather Map
  • Weather Widgets
  • user-avatar
    Login

    Hourly Weather Wien

    Today, 21 February, Thursday

    Time Temperature Precipitation Wind Pressure Humidity
    00:00 +6°C° 0 mm 1 mps 751 mmHg 81%
    01:00 +5°C° 0 mm 1 mps 751 mmHg 82%
    02:00 +5°C° 0 mm 1 mps 751 mmHg 82%
    03:00 +5°C° 0 mm 1 mps 751 mmHg 83%
    04:00 +4°C° 0 mm 1 mps 751 mmHg 83%
    05:00 +4°C° 0 mm 1 mps 751 mmHg 83%
    06:00 +4°C° 0 mm 1 mps 751 mmHg 83%
    07:00 +4°C° 0 mm 1 mps 751 mmHg 83%
    08:00 +6°C° 0 mm 1 mps 751 mmHg 77%
    09:00 +6°C° 0 mm 2 mps 751 mmHg 72%
    10:00 +8°C° 0 mm 2 mps 751 mmHg 66%
    11:00 +9°C° 0 mm 2 mps 751 mmHg 62%
    12:00 +11°C° 0 mm 3 mps 751 mmHg 57%
    13:00 +12°C° 0 mm 4 mps 750 mmHg 53%
    14:00 +12°C° 0 mm 4 mps 750 mmHg 53%
    15:00 +12°C° 0 mm 4 mps 750 mmHg 54%
    16:00 +12°C° 0 mm 4 mps 750 mmHg 54%
    17:00 +11°C° 0.1 mm 3 mps 750 mmHg 60%
    18:00 +10°C° 0.1 mm 3 mps 750 mmHg 66%
    19:00 +9°C° 0.1 mm 3 mps 750 mmHg 72%
    20:00 +9°C° 0 mm 3 mps 750 mmHg 72%
    21:00 +9°C° 0 mm 3 mps 750 mmHg 73%
    22:00 +8°C° 0 mm 3 mps 750 mmHg 73%
    23:00 +7°C° 0 mm 4 mps 750 mmHg 75%

    Tomorrow, 22 February, Friday

    Time Temperature Precipitation Wind Pressure Humidity
    00:00 +7°C° 0 mm 4 mps 750 mmHg 76%
    01:00 +6°C° 0 mm 5 mps 749 mmHg 77%
    02:00 +7°C° 0.5 mm 5 mps 749 mmHg 78%
    03:00 +7°C° 0.5 mm 5 mps 749 mmHg 78%
    04:00 +7°C° 0.5 mm 6 mps 748 mmHg 79%
    05:00 +7°C° 1.7 mm 6 mps 748 mmHg 80%
    06:00 +7°C° 1.7 mm 6 mps 748 mmHg 81%
    07:00 +7°C° 1.7 mm 6 mps 748 mmHg 82%
    08:00 +7°C° 0.5 mm 6 mps 748 mmHg 80%
    09:00 +8°C° 0.5 mm 6 mps 749 mmHg 78%
    10:00 +8°C° 0.5 mm 7 mps 749 mmHg 77%
    11:00 +8°C° 0.2 mm 6 mps 750 mmHg 74%
    12:00 +8°C° 0.2 mm 6 mps 750 mmHg 71%
    13:00 +8°C° 0.2 mm 6 mps 751 mmHg 68%
    14:00 +8°C° 0 mm 6 mps 751 mmHg 65%
    15:00 +7°C° 0 mm 6 mps 752 mmHg 62%
    16:00 +7°C° 0 mm 6 mps 752 mmHg 59%
    17:00 +4°C° 0 mm 6 mps 753 mmHg 60%
    18:00 +3°C° 0 mm 5 mps 754 mmHg 62%
    19:00 +2°C° 0 mm 5 mps 755 mmHg 63%
    20:00 +1°C° 0 mm 5 mps 756 mmHg 63%
    21:00 0°C° 0 mm 4 mps 756 mmHg 63%
    22:00 -1°C° 0 mm 4 mps 757 mmHg 64%
    23:00 -1°C° 0 mm 4 mps 758 mmHg 62%

    Day after tomorrow, 23 February, Saturday

    Time Temperature Precipitation Wind Pressure Humidity
    00:00 -2°C° 0 mm 4 mps 758 mmHg 61%
    01:00 -2°C° 0 mm 4 mps 758 mmHg 60%
    02:00 -2°C° 0 mm 3 mps 758 mmHg 59%
    03:00 -2°C° 0 mm 3 mps 759 mmHg 57%
    04:00 -2°C° 0 mm 3 mps 759 mmHg 56%
    05:00 -2°C° 0 mm 3 mps 759 mmHg 54%
    06:00 -4°C° 0 mm 3 mps 759 mmHg 52%
    07:00 -4°C° 0 mm 3 mps 759 mmHg 51%
    08:00 -2°C° 0 mm 3 mps 760 mmHg 45%
    09:00 -1°C° 0 mm 3 mps 760 mmHg 40%
    10:00 -1°C° 0 mm 4 mps 760 mmHg 35%
    11:00 -1°C° 0 mm 4 mps 760 mmHg 32%
    12:00 +1°C° 0 mm 3 mps 760 mmHg 29%
    13:00 +2°C° 0 mm 3 mps 760 mmHg 27%
    14:00 +2°C° 0 mm 3 mps 759 mmHg 27%
    15:00 +2°C° 0 mm 3 mps 759 mmHg 28%
    16:00 +2°C° 0 mm 3 mps 759 mmHg 28%
    17:00 +1°C° 0 mm 3 mps 759 mmHg 31%
    18:00 +1°C° 0 mm 2 mps 759 mmHg 34%
    19:00 -1°C° 0 mm 2 mps 760 mmHg 37%
    20:00 -1°C° 0 mm 2 mps 760 mmHg 37%
    21:00 -1°C° 0 mm 2 mps 760 mmHg 37%
    22:00 -2°C° 0 mm 2 mps 760 mmHg 37%
    23:00 -2°C° 0 mm 2 mps 760 mmHg 37%

    24 February, Sunday

    Time Temperature Precipitation Wind Pressure Humidity
    00:00 -2°C° 0 mm 2 mps 760 mmHg 37%
    01:00 -2°C° 0 mm 2 mps 760 mmHg 37%
    02:00 -2°C° 0 mm 2 mps 760 mmHg 36%
    03:00 0°C° 0 mm 1 mps 759 mmHg 36%
    04:00 0°C° 0 mm 1 mps 759 mmHg 36%
    05:00 0°C° 0 mm 1 mps 759 mmHg 36%
    06:00 0°C° 0 mm 1 mps 759 mmHg 36%
    07:00 0°C° 0 mm 1 mps 759 mmHg 36%
    08:00 +1°C° 0 mm 1 mps 759 mmHg 32%
    09:00 +2°C° 0 mm 1 mps 759 mmHg 29%
    10:00 +3°C° 0 mm 2 mps 759 mmHg 25%
    11:00 +4°C° 0 mm 2 mps 758 mmHg 25%
    12:00 +5°C° 0 mm 2 mps 758 mmHg 24%
    13:00 +7°C° 0 mm 2 mps 758 mmHg 23%
    14:00 +7°C° 0 mm 2 mps 757 mmHg 28%
    15:00 +7°C° 0 mm 2 mps 757 mmHg 32%
    16:00 +8°C° 0 mm 1 mps 757 mmHg 36%
    17:00 +7°C° 0 mm 1 mps 757 mmHg 40%
    18:00 +6°C° 0 mm 1 mps 757 mmHg 43%
    19:00 +5°C° 0 mm 1 mps 757 mmHg 47%
    20:00 +4°C° 0 mm 2 mps 757 mmHg 51%
    21:00 +3°C° 0 mm 2 mps 757 mmHg 55%
    22:00 +2°C° 0 mm 3 mps 757 mmHg 59%
    23:00 +2°C° 0 mm 3 mps 756 mmHg 59%

    25 February, Monday

    Time Temperature Precipitation Wind Pressure Humidity
    00:00 +2°C° 0 mm 3 mps 756 mmHg 58%
    01:00 +1°C° 0 mm 4 mps 756 mmHg 58%
    02:00 +3°C° 0 mm 4 mps 755 mmHg 59%
    03:00 +3°C° 0 mm 4 mps 755 mmHg 60%
    04:00 +2°C° 0 mm 5 mps 755 mmHg 61%
    05:00 +2°C° 0.1 mm 5 mps 755 mmHg 63%
    06:00 +2°C° 0.1 mm 5 mps 755 mmHg 65%
    07:00 +2°C° 0.1 mm 5 mps 755 mmHg 67%
    08:00 +3°C° 0 mm 5 mps 755 mmHg 66%
    09:00 +5°C° 0 mm 5 mps 755 mmHg 65%
    10:00 +5°C° 0 mm 6 mps 756 mmHg 65%
    11:00 +5°C° 0 mm 6 mps 756 mmHg 65%
    12:00 +7°C° 0 mm 5 mps 756 mmHg 66%
    13:00 +7°C° 0 mm 5 mps 756 mmHg 66%
    14:00 +8°C° 0 mm 5 mps 756 mmHg 65%
    15:00 +8°C° 0 mm 5 mps 756 mmHg 64%
    16:00 +8°C° 0 mm 5 mps 756 mmHg 63%
    17:00 +7°C° 0 mm 5 mps 756 mmHg 65%
    18:00 +6°C° 0 mm 4 mps 757 mmHg 67%
    19:00 +5°C° 0 mm 4 mps 757 mmHg 69%
    20:00 +5°C° 0 mm 4 mps 757 mmHg 72%
    21:00 +4°C° 0 mm 4 mps 758 mmHg 74%
    22:00 +3°C° 0 mm 3 mps 758 mmHg 77%
    23:00 +3°C° 0 mm 3 mps 758 mmHg 78%

    26 February, Tuesday

    Time Temperature Precipitation Wind Pressure Humidity
    00:00 +3°C° 0 mm 3 mps 758 mmHg 79%
    01:00 +2°C° 0 mm 3 mps 757 mmHg 81%
    02:00 +2°C° 0 mm 3 mps 757 mmHg 81%
    03:00 +2°C° 0 mm 3 mps 756 mmHg 81%
    04:00 +2°C° 0 mm 2 mps 756 mmHg 81%
    05:00 +2°C° 0 mm 2 mps 756 mmHg 80%
    06:00 +2°C° 0 mm 2 mps 755 mmHg 79%
    07:00 +2°C° 0 mm 2 mps 755 mmHg 79%
    08:00 +4°C° 0 mm 2 mps 754 mmHg 70%
    09:00 +5°C° 0 mm 3 mps 754 mmHg 62%
    10:00 +7°C° 0 mm 3 mps 754 mmHg 53%
    11:00 +8°C° 0 mm 4 mps 753 mmHg 47%
    12:00 +11°C° 0 mm 4 mps 753 mmHg 41%
    13:00 +13°C° 0 mm 5 mps 752 mmHg 34%
    14:00 +13°C° 0 mm 5 mps 752 mmHg 34%
    15:00 +13°C° 0 mm 5 mps 751 mmHg 34%
    16:00 +13°C° 0 mm 5 mps 751 mmHg 34%
    17:00 +12°C° 0 mm 5 mps 751 mmHg 39%
    18:00 +10°C° 0 mm 5 mps 751 mmHg 44%
    19:00 +8°C° 0 mm 5 mps 751 mmHg 48%
    20:00 +8°C° 0 mm 5 mps 751 mmHg 50%
    21:00 +8°C° 0 mm 5 mps 751 mmHg 51%
    22:00 +7°C° 0 mm 5 mps 751 mmHg 53%
    23:00 +7°C° 0 mm 5 mps 751 mmHg 53%
    Show more